Weather History for Davenport, IA

Change the Weather History Date:

Thursday, January 30, 2014

  Actual Average Record
Temperature  
Mean Temperature 24 °F 22 °F  
Max Temperature 34 °F 31 °F 58 °F (2012)
Min Temperature 14 °F 14 °F -14 °F (1951)
Degree Days  
Heating Degree Days 41 43  
Month to date heating degree days 1522 1314  
Since 1 July heating degree days 4354 3894  
Cooling Degree Days 0 0  
Month to date cooling degree days 0 0  
Year to date cooling degree days 0 0  
Moisture  
Dew Point 18 °F    
Average Humidity 66    
Maximum Humidity 85    
Minimum Humidity 46    
Precipitation  
Precipitation 0.04 in 0.07 in 0.32 in (2013)
Month to date precipitation 0.76 1.12  
Year to date precipitation 0.76 1.12  
Snow  
Snow 0.50 in - - ()
Month to date snowfall 11.1  
Since 1 July snowfall 28.3  
Snow Depth 1.00 in    
Sea Level Pressure  
Sea Level Pressure 29.74 in    
Wind  
Wind Speed 21 mph (SW)    
Max Wind Speed 35 mph    
Max Gust Speed 46 mph    
Visibility 7 miles    
Events Fog , Snow    
T = Trace of Precipitation, MM = Missing Value Source: NWS Daily Summary

Daily Weather History Graph

Daily Weather History Graph

Search for Another Location

Airport:

Trip Planner

Search our weather history database for the weather conditions in past years. The results will help you decide how hot, cold, wet, or windy it might be!

Date:

Astronomy

Jan. 30, 2014 Rise Set
Actual Time 7:16 AM CST 5:15 PM CST
Civil Twilight 6:46 AM CST 5:45 PM CST
Nautical Twilight 6:13 AM CST 6:18 PM CST
Astronomical Twilight 5:40 AM CST 6:51 PM CST
Moon 6:41 AM CST (1/30) 5:28 PM CST (1/30)
Length of Visible Light 10h 58m
Length of Day
9h 59m
Waning Crescent, 0% of the Moon is Illuminated
Jan 30
Waning Crescent
Jan 30
New
Feb 6
First Quarter
Feb 14
Full
Feb 22
Last Quarter

Hourly Weather History & Observations

Time (CST) Temp. Windchill Dew Point Humidity Pressure Visibility Wind Dir Wind Speed Gust Speed Precip Events Conditions
12:52 AM 26.1 °F 11.0 °F 9.0 °F 49% 29.87 in 10.0 mi South 24.2 mph 31.1 mph N/A   Clear
1:52 AM 25.0 °F 9.5 °F 10.0 °F 53% 29.84 in 10.0 mi South 24.2 mph 32.2 mph N/A   Clear
2:52 AM 26.1 °F 11.0 °F 10.0 °F 51% 29.83 in 10.0 mi South 24.2 mph 31.1 mph N/A   Clear
3:52 AM 27.0 °F 11.9 °F 10.9 °F 51% 29.79 in 10.0 mi South 25.3 mph 33.4 mph N/A   Clear
4:52 AM 27.0 °F 12.5 °F 10.9 °F 51% 29.76 in 10.0 mi South 23.0 mph 33.4 mph N/A   Clear
5:52 AM 27.0 °F 11.9 °F 12.0 °F 53% 29.74 in 10.0 mi South 25.3 mph 31.1 mph N/A   Clear
6:52 AM 27.0 °F 11.9 °F 12.0 °F 53% 29.74 in 10.0 mi South 25.3 mph 32.2 mph N/A   Mostly Cloudy
7:52 AM 28.0 °F 12.8 °F 12.0 °F 51% 29.68 in 10.0 mi South 27.6 mph 38.0 mph N/A   Overcast
8:52 AM 28.9 °F 14.3 °F 12.0 °F 49% 29.68 in 10.0 mi SSW 26.5 mph 34.5 mph N/A   Scattered Clouds
9:52 AM 28.9 °F 14.3 °F 12.9 °F 51% 29.63 in 10.0 mi South 26.5 mph 34.5 mph N/A   Scattered Clouds
10:52 AM 30.9 °F 18.4 °F 12.9 °F 47% 29.66 in 10.0 mi SSW 20.7 mph 26.5 mph N/A   Overcast
11:21 AM 30.2 °F 14.3 °F 17.6 °F 60% 29.66 in 2.0 mi SW 34.5 mph 46.0 mph 0.00 in Snow Light Snow
11:27 AM 28.4 °F 13.3 °F 21.2 °F 74% 29.66 in 0.8 mi SW 27.6 mph 46.0 mph 0.00 in Snow Light Snow
11:33 AM 28.4 °F 13.5 °F 23.0 °F 80% 29.65 in 0.2 mi SW 26.5 mph 39.1 mph 0.00 in Snow Heavy Snow
11:49 AM 28.4 °F 12.7 °F 24.8 °F 86% 29.65 in 0.2 mi SW 29.9 mph 38.0 mph 0.00 in Fog , Snow Snow
11:52 AM 28.0 °F 12.8 °F 24.1 °F 85% 29.68 in 0.2 mi SW 27.6 mph 38.0 mph 0.00 in Fog , Snow Snow
12:05 PM 28.4 °F 14.4 °F 24.8 °F 86% 29.65 in 0.5 mi SW 23.0 mph 33.4 mph 0.00 in Fog , Snow Light Snow
12:15 PM 28.4 °F 15.4 °F 24.8 °F 86% 29.64 in 0.8 mi SW 19.6 mph 27.6 mph 0.00 in Snow Light Snow
12:27 PM 28.4 °F 16.2 °F 26.6 °F 93% 29.63 in 0.8 mi SW 17.3 mph - 0.00 in Snow Light Snow
12:42 PM 28.4 °F 14.7 °F 26.6 °F 93% 29.62 in 1.0 mi SSW 21.9 mph 31.1 mph 0.00 in Snow Light Snow
12:52 PM 28.9 °F 15.4 °F 25.0 °F 85% 29.64 in 2.0 mi SSW 21.9 mph 31.1 mph 0.00 in Snow Light Snow
12:56 PM 28.4 °F 14.1 °F 24.8 °F 86% 29.61 in 3.0 mi SSW 24.2 mph 31.1 mph 0.00 in Snow Light Snow
12:59 PM 28.4 °F 15.4 °F 24.8 °F 86% 29.61 in 4.0 mi SSW 19.6 mph 31.1 mph 0.00 in Snow Light Snow
1:22 PM 30.2 °F 16.5 °F 24.8 °F 80% 29.61 in 6.0 mi SW 24.2 mph 33.4 mph 0.00 in   Haze
1:52 PM 30.9 °F 17.5 °F 25.0 °F 79% 29.65 in 9.0 mi SSW 24.2 mph 33.4 mph 0.00 in   Overcast
2:20 PM 32.0 °F 19.2 °F 24.8 °F 75% 29.63 in 10.0 mi SW 23.0 mph 29.9 mph N/A   Overcast
2:52 PM 33.1 °F 21.2 °F 25.0 °F 72% 29.67 in 10.0 mi SW 20.7 mph 27.6 mph N/A   Overcast
3:52 PM 33.1 °F 22.2 °F 25.0 °F 72% 29.70 in 10.0 mi SW 17.3 mph 23.0 mph N/A   Overcast
4:52 PM 34.0 °F 23.8 °F 25.0 °F 70% 29.74 in 10.0 mi West 16.1 mph - N/A   Overcast
5:12 PM 30.2 °F 18.5 °F 24.8 °F 80% 29.73 in 7.0 mi NW 17.3 mph 24.2 mph N/A   Overcast
5:26 PM 28.4 °F 15.1 °F 23.0 °F 80% 29.75 in 8.0 mi WNW 20.7 mph - N/A   Overcast
5:52 PM 25.0 °F 10.6 °F 19.9 °F 81% 29.81 in 8.0 mi WNW 20.7 mph 26.5 mph N/A   Scattered Clouds
6:52 PM 21.0 °F 8.1 °F 15.1 °F 78% 29.87 in 9.0 mi WNW 13.8 mph - N/A   Clear
7:52 PM 19.0 °F 5.0 °F 12.9 °F 77% 29.91 in 10.0 mi WNW 15.0 mph - N/A   Clear
8:52 PM 17.1 °F 2.5 °F 12.0 °F 81% 29.95 in 10.0 mi WNW 15.0 mph 21.9 mph N/A   Clear
9:52 PM 17.1 °F 1.5 °F 10.0 °F 74% 29.98 in 10.0 mi WNW 17.3 mph 23.0 mph N/A   Clear
10:52 PM 15.1 °F 1.8 °F 9.0 °F 77% 30.00 in 10.0 mi NW 11.5 mph - N/A   Clear
11:52 PM 14.0 °F -1.4 °F 8.1 °F 77% 30.02 in 10.0 mi NW 15.0 mph 19.6 mph N/A   Clear